Location: Lane
(33.5226°N, 79.8788°W)
Time: 05:48:58
(UTC+00:00)

Vanguard 2 - Pass Details

Date: 04 October 2022
Orbit: 553 x 2933 km, 32.9° (Epoch: 26 November)

Event Time Altitude Azimuth Distance (km) Brightness Sun altitude
Rises 19:14:49 0° 263° (W) 4,828 12.2 41.6°
Reaches altitude 10° 19:17:31 10° 263° (W) 4,107 12.0 41.2°
Maximum altitude 19:29:33 87° 175° (S) 2,449 10.8 39.3°
Drops below altitude 10° 19:47:13 10° 89° (E) 5,751 11.7 36.5°
Sets 19:51:48 0° 90° (E) 6,780 11.9 35.7°
